Time,TemperatureF,DewpointF,PressureIn,WindDirection,WindDirectionDegrees,WindSpeedMPH,WindSpeedGustMPH,Humidity,HourlyPrecipIn,Conditions,Clouds,dailyrainin,SoftwareType,DateUTC
2013-04-14 00:03:00,66.0,-99.9,30.07,SE,128,2.0,6.0,-999,-99.99,,,-99.99,,2013-04-14 04:03:00,
2013-04-14 00:13:00,65.0,-99.9,30.08,SE,133,4.0,5.0,-999,-99.99,,,-99.99,,2013-04-14 04:13:00,
2013-04-14 00:23:00,65.0,-99.9,30.08,SSE,147,3.0,5.0,-999,-99.99,,,-99.99,,2013-04-14 04:23:00,
2013-04-14 00:33:00,65.0,-99.9,30.07,SE,129,2.0,4.0,-999,-99.99,,,-99.99,,2013-04-14 04:33:00,
2013-04-14 00:43:00,64.0,-99.9,30.07,SSE,149,3.0,4.0,-999,-99.99,,,-99.99,,2013-04-14 04:43:00,
2013-04-14 00:53:00,64.0,-99.9,30.08,SSE,156,3.0,4.0,-999,-99.99,,,-99.99,,2013-04-14 04:53:00,
2013-04-14 01:03:00,64.0,-99.9,30.07,SE,127,2.0,4.0,-999,-99.99,,,-99.99,,2013-04-14 05:03:00,
2013-04-14 01:12:00,64.0,-99.9,30.07,SE,136,4.0,6.0,-999,-99.99,,,-99.99,,2013-04-14 05:12:00,
2013-04-14 01:23:00,64.0,-99.9,30.06,ESE,119,3.0,4.0,-999,-99.99,,,-99.99,,2013-04-14 05:23:00,
2013-04-14 01:32:00,65.0,-99.9,30.06,ESE,113,4.0,6.0,-999,-99.99,,,-99.99,,2013-04-14 05:32:00,
2013-04-14 01:43:00,65.0,-99.9,30.05,SE,124,3.0,4.0,-999,-99.99,,,-99.99,,2013-04-14 05:43:00,
2013-04-14 01:53:00,65.0,-99.9,30.05,ESE,108,3.0,4.0,-999,-99.99,,,-99.99,,2013-04-14 05:53:00,
2013-04-14 02:02:00,65.0,-99.9,30.06,ESE,122,3.0,6.0,-999,-99.99,,,-99.99,,2013-04-14 06:02:00,
2013-04-14 02:12:00,65.0,-99.9,30.06,SE,145,2.0,6.0,-999,-99.99,,,-99.99,,2013-04-14 06:12:00,
2013-04-14 02:22:00,65.0,-99.9,30.06,SE,131,2.0,3.0,-999,-99.99,,,-99.99,,2013-04-14 06:22:00,
2013-04-14 02:32:00,64.0,-99.9,30.06,SSW,195,2.0,3.0,-999,-99.99,,,-99.99,,2013-04-14 06:32:00,
2013-04-14 02:42:00,64.0,-99.9,30.06,WSW,248,1.0,2.0,-999,-99.99,,,-99.99,,2013-04-14 06:42:00,
2013-04-14 02:53:00,64.0,-99.9,30.06,WSW,248,-999.0,0.0,-999,-99.99,,,-99.99,,2013-04-14 06:53:00,
2013-04-14 03:03:00,64.0,-99.9,30.05,WSW,248,0.0,1.0,-999,-99.99,,,-99.99,,2013-04-14 07:03:00,
2013-04-14 03:12:00,64.0,-99.9,30.06,NNE,13,0.0,1.0,-999,-99.99,,,-99.99,,2013-04-14 07:12:00,
2013-04-14 03:23:00,64.0,-99.9,30.05,NNE,12,-999.0,1.0,-999,-99.99,,,-99.99,,2013-04-14 07:23:00,
2013-04-14 03:33:00,64.0,-99.9,30.05,NE,45,1.0,1.0,-999,-99.99,,,-99.99,,2013-04-14 07:33:00,
2013-04-14 03:42:00,64.0,-99.9,30.05,North,-999,-999.0,-999.0,-999,-99.99,,,-99.99,,2013-04-14 07:42:00,
2013-04-14 03:53:00,64.0,-99.9,30.05,SE,125,2.0,2.0,-999,-99.99,,,-99.99,,2013-04-14 07:53:00,
2013-04-14 04:03:00,64.0,-99.9,30.05,SSE,163,1.0,1.0,-999,-99.99,,,-99.99,,2013-04-14 08:03:00,
2013-04-14 04:13:00,64.0,-99.9,30.05,ENE,61,2.0,2.0,-999,-99.99,,,-99.99,,2013-04-14 08:13:00,
2013-04-14 04:23:00,65.0,-99.9,30.04,North,9,1.0,2.0,-999,-99.99,,,-99.99,,2013-04-14 08:23:00,
2013-04-14 04:33:00,65.0,-99.9,30.03,ENE,68,2.0,3.0,-999,-99.99,,,-99.99,,2013-04-14 08:33:00,
2013-04-14 04:43:00,64.0,-99.9,30.04,South,191,-999.0,2.0,-999,-99.99,,,-99.99,,2013-04-14 08:43:00,
2013-04-14 04:52:00,64.0,-99.9,30.04,SSE,168,2.0,2.0,-999,-99.99,,,-99.99,,2013-04-14 08:52:00,
2013-04-14 05:03:00,64.0,-99.9,30.03,ESE,105,2.0,3.0,-999,-99.99,,,-99.99,,2013-04-14 09:03:00,
2013-04-14 05:12:00,65.0,-99.9,30.02,East,81,4.0,5.0,-999,-99.99,,,-99.99,,2013-04-14 09:12:00,
2013-04-14 05:23:00,65.0,-99.9,30.02,SE,124,4.0,5.0,-999,-99.99,,,-99.99,,2013-04-14 09:23:00,
2013-04-14 05:33:00,64.0,-99.9,30.03,SSE,156,2.0,5.0,-999,-99.99,,,-99.99,,2013-04-14 09:33:00,
2013-04-14 05:43:00,64.0,-99.9,30.03,South,173,2.0,3.0,-999,-99.99,,,-99.99,,2013-04-14 09:43:00,
2013-04-14 05:54:00,64.0,-99.9,30.04,SSW,196,1.0,2.0,-999,-99.99,,,-99.99,,2013-04-14 09:54:00,
2013-04-14 06:03:00,64.0,-99.9,30.04,South,183,1.0,1.0,-999,-99.99,,,-99.99,,2013-04-14 10:03:00,
2013-04-14 06:13:00,64.0,-99.9,30.03,East,99,2.0,2.0,-999,-99.99,,,-99.99,,2013-04-14 10:13:00,
2013-04-14 06:23:00,64.0,-99.9,30.03,East,84,3.0,3.0,-999,-99.99,,,-99.99,,2013-04-14 10:23:00,
2013-04-14 06:33:00,65.0,-99.9,30.03,NE,44,3.0,4.0,-999,-99.99,,,-99.99,,2013-04-14 10:33:00,
2013-04-14 06:43:00,64.0,-99.9,30.04,NE,41,3.0,5.0,-999,-99.99,,,-99.99,,2013-04-14 10:43:00,
2013-04-14 06:53:00,64.0,-99.9,30.04,NE,44,3.0,4.0,-999,-99.99,,,-99.99,,2013-04-14 10:53:00,
2013-04-14 07:03:00,64.0,-99.9,30.04,NE,36,3.0,4.0,-999,-99.99,,,-99.99,,2013-04-14 11:03:00,
2013-04-14 07:13:00,65.0,-99.9,30.04,NE,45,4.0,5.0,-999,-99.99,,,-99.99,,2013-04-14 11:13:00,
2013-04-14 07:23:00,65.0,-99.9,30.04,NE,42,5.0,6.0,-999,-99.99,,,-99.99,,2013-04-14 11:23:00,
2013-04-14 07:33:00,65.0,-99.9,30.05,NE,55,5.0,6.0,-999,-99.99,,,-99.99,,2013-04-14 11:33:00,
2013-04-14 07:42:00,66.0,-99.9,30.05,NE,56,5.0,7.0,-999,-99.99,,,-99.99,,2013-04-14 11:42:00,
2013-04-14 07:53:00,66.0,-99.9,30.05,ENE,64,5.0,6.0,-999,-99.99,,,-99.99,,2013-04-14 11:53:00,
2013-04-14 08:02:00,66.0,-99.9,30.04,ENE,68,8.0,9.0,-999,-99.99,,,-99.99,,2013-04-14 12:02:00,
2013-04-14 08:12:00,66.0,-99.9,30.05,ENE,74,7.0,11.0,-999,-99.99,,,-99.99,,2013-04-14 12:12:00,
2013-04-14 08:22:00,66.0,-99.9,30.04,ENE,60,9.0,11.0,-999,-99.99,,,-99.99,,2013-04-14 12:22:00,
2013-04-14 08:32:00,67.0,-99.9,30.04,ENE,61,9.0,11.0,-999,-99.99,,,-99.99,,2013-04-14 12:32:00,
2013-04-14 08:42:00,67.0,-99.9,30.04,ENE,74,9.0,11.0,-999,-99.99,,,-99.99,,2013-04-14 12:42:00,
2013-04-14 08:52:00,67.0,-99.9,30.05,East,83,7.0,11.0,-999,-99.99,,,-99.99,,2013-04-14 12:52:00,
2013-04-14 09:02:00,67.0,-99.9,30.04,East,80,8.0,11.0,-999,-99.99,,,-99.99,,2013-04-14 13:02:00,
2013-04-14 09:12:00,68.0,-99.9,30.04,ENE,76,9.0,12.0,-999,-99.99,,,-99.99,,2013-04-14 13:12:00,
2013-04-14 09:23:00,68.0,-99.9,30.06,East,92,6.0,10.0,-999,-99.99,,,-99.99,,2013-04-14 13:23:00,
2013-04-14 09:33:00,68.0,-99.9,30.06,ENE,77,7.0,9.0,-999,-99.99,,,-99.99,,2013-04-14 13:33:00,
2013-04-14 09:43:00,68.0,-99.9,30.06,ENE,75,8.0,10.0,-999,-99.99,,,-99.99,,2013-04-14 13:43:00,
2013-04-14 09:52:00,68.0,-99.9,30.06,East,79,8.0,10.0,-999,-99.99,,,-99.99,,2013-04-14 13:52:00,
2013-04-14 10:03:00,69.0,-99.9,30.06,ENE,76,10.0,13.0,-999,-99.99,,,-99.99,,2013-04-14 14:03:00,
2013-04-14 10:12:00,68.0,-99.9,30.06,ENE,70,12.0,15.0,-999,-99.99,,,-99.99,,2013-04-14 14:12:00,
2013-04-14 10:22:00,68.0,-99.9,30.07,ENE,71,11.0,13.0,-999,-99.99,,,-99.99,,2013-04-14 14:22:00,
2013-04-14 10:32:00,68.0,-99.9,30.07,ENE,68,11.0,13.0,-999,-99.99,,,-99.99,,2013-04-14 14:32:00,
2013-04-14 10:42:00,68.0,-99.9,30.08,ENE,65,10.0,12.0,-999,-99.99,,,-99.99,,2013-04-14 14:42:00,
2013-04-14 10:53:00,68.0,-99.9,30.08,ENE,69,10.0,12.0,-999,-99.99,,,-99.99,,2013-04-14 14:53:00,
2013-04-14 11:03:00,69.0,-99.9,30.08,ENE,73,10.0,11.0,-999,-99.99,,,-99.99,,2013-04-14 15:03:00,
2013-04-14 11:13:00,69.0,-99.9,30.08,ENE,74,12.0,14.0,-999,-99.99,,,-99.99,,2013-04-14 15:13:00,
2013-04-14 11:23:00,68.0,-99.9,30.07,ENE,69,14.0,16.0,-999,-99.99,,,-99.99,,2013-04-14 15:23:00,
2013-04-14 11:34:00,69.0,-99.9,30.08,ENE,75,11.0,14.0,-999,-99.99,,,-99.99,,2013-04-14 15:34:00,
2013-04-14 11:44:00,69.0,-99.9,30.07,ENE,71,12.0,13.0,-999,-99.99,,,-99.99,,2013-04-14 15:44:00,
2013-04-14 11:53:00,69.0,-99.9,30.07,ENE,75,11.0,13.0,-999,-99.99,,,-99.99,,2013-04-14 15:53:00,
2013-04-14 12:05:00,69.0,-99.9,30.06,ENE,75,13.0,15.0,-999,-99.99,,,-99.99,,2013-04-14 16:05:00,
2013-04-14 12:13:00,71.0,-99.9,30.07,East,99,10.0,14.0,-999,-99.99,,,-99.99,,2013-04-14 16:13:00,
2013-04-14 12:23:00,72.0,-99.9,30.07,East,95,10.0,15.0,-999,-99.99,,,-99.99,,2013-04-14 16:23:00,
2013-04-14 12:33:00,72.0,-99.9,30.06,East,95,12.0,16.0,-999,-99.99,,,-99.99,,2013-04-14 16:33:00,
2013-04-14 12:43:00,71.0,-99.9,30.06,East,94,11.0,15.0,-999,-99.99,,,-99.99,,2013-04-14 16:43:00,
2013-04-14 12:53:00,71.0,-99.9,30.06,East,96,10.0,15.0,-999,-99.99,,,-99.99,,2013-04-14 16:53:00,
2013-04-14 13:02:00,71.0,-99.9,30.06,East,96,9.0,15.0,-999,-99.99,,,-99.99,,2013-04-14 17:02:00,
2013-04-14 13:13:00,69.0,-99.9,30.05,ENE,74,9.0,14.0,-999,-99.99,,,-99.99,,2013-04-14 17:13:00,
2013-04-14 13:23:00,69.0,-99.9,30.06,ENE,74,9.0,11.0,-999,-99.99,,,-99.99,,2013-04-14 17:23:00,
2013-04-14 13:33:00,68.0,-99.9,30.06,ENE,69,8.0,10.0,-999,-99.99,,,-99.99,,2013-04-14 17:33:00,
2013-04-14 13:43:00,68.0,-99.9,30.07,ENE,59,6.0,8.0,-999,-99.99,,,-99.99,,2013-04-14 17:43:00,
2013-04-14 13:53:00,69.0,-99.9,30.07,NNE,22,6.0,9.0,-999,-99.99,,,-99.99,,2013-04-14 17:53:00,
2013-04-14 14:03:00,68.0,-99.9,30.08,NNW,335,2.0,4.0,-999,-99.99,,,-99.99,,2013-04-14 18:03:00,
2013-04-14 14:13:00,67.0,-99.9,30.08,North,2,10.0,12.0,-999,-99.99,,,-99.99,,2013-04-14 18:13:00,
2013-04-14 14:22:00,67.0,-99.9,30.06,NNE,33,11.0,15.0,-999,-99.99,,,-99.99,,2013-04-14 18:22:00,
2013-04-14 14:33:00,66.0,-99.9,30.05,NE,50,14.0,17.0,-999,-99.99,,,-99.99,,2013-04-14 18:33:00,
2013-04-14 14:43:00,65.0,-99.9,30.05,NE,44,11.0,12.0,-999,-99.99,,,-99.99,,2013-04-14 18:43:00,
2013-04-14 14:54:00,65.0,-99.9,30.04,NNE,16,13.0,14.0,-999,-99.99,,,-99.99,,2013-04-14 18:54:00,
2013-04-14 15:04:00,65.0,-99.9,30.04,NNE,30,13.0,15.0,-999,-99.99,,,-99.99,,2013-04-14 19:04:00,
2013-04-14 15:12:00,65.0,-99.9,30.03,NNE,30,11.0,15.0,-999,-99.99,,,-99.99,,2013-04-14 19:12:00,
2013-04-14 15:23:00,65.0,-99.9,30.02,NE,37,12.0,15.0,-999,-99.99,,,-99.99,,2013-04-14 19:23:00,
2013-04-14 15:33:00,65.0,-99.9,30.03,NNE,20,11.0,15.0,-999,-99.99,,,-99.99,,2013-04-14 19:33:00,
2013-04-14 15:43:00,65.0,-99.9,30.03,NNE,19,13.0,15.0,-999,-99.99,,,-99.99,,2013-04-14 19:43:00,
2013-04-14 15:53:00,65.0,-99.9,30.03,NNE,18,14.0,17.0,-999,-99.99,,,-99.99,,2013-04-14 19:53:00,
2013-04-14 16:03:00,65.0,-99.9,30.02,NNE,23,16.0,19.0,-999,-99.99,,,-99.99,,2013-04-14 20:03:00,
2013-04-14 16:13:00,66.0,-99.9,30.01,NNE,25,12.0,17.0,-999,-99.99,,,-99.99,,2013-04-14 20:13:00,
2013-04-14 16:22:00,65.0,-99.9,30.02,North,8,11.0,17.0,-999,-99.99,,,-99.99,,2013-04-14 20:22:00,
2013-04-14 16:33:00,65.0,-99.9,30.01,NNE,24,10.0,14.0,-999,-99.99,,,-99.99,,2013-04-14 20:33:00,
2013-04-14 16:43:00,65.0,-99.9,30.01,NNE,33,12.0,14.0,-999,-99.99,,,-99.99,,2013-04-14 20:43:00,
2013-04-14 16:53:00,66.0,-99.9,30.00,NNE,33,13.0,16.0,-999,-99.99,,,-99.99,,2013-04-14 20:53:00,
2013-04-14 17:02:00,65.0,-99.9,30.00,NNE,30,11.0,15.0,-999,-99.99,,,-99.99,,2013-04-14 21:02:00,
2013-04-14 17:13:00,66.0,-99.9,29.99,NE,35,14.0,17.0,-999,-99.99,,,-99.99,,2013-04-14 21:13:00,
2013-04-14 17:23:00,66.0,-99.9,29.98,NE,43,15.0,18.0,-999,-99.99,,,-99.99,,2013-04-14 21:23:00,
2013-04-14 17:33:00,66.0,-99.9,29.98,NE,45,15.0,19.0,-999,-99.99,,,-99.99,,2013-04-14 21:33:00,
2013-04-14 17:43:00,66.0,-99.9,29.97,NE,50,18.0,22.0,-999,-99.99,,,-99.99,,2013-04-14 21:43:00,
2013-04-14 17:54:00,66.0,-99.9,29.97,NE,49,15.0,19.0,-999,-99.99,,,-99.99,,2013-04-14 21:54:00,
2013-04-14 18:03:00,67.0,-99.9,29.98,NE,45,15.0,17.0,-999,-99.99,,,-99.99,,2013-04-14 22:03:00,
2013-04-14 18:13:00,67.0,-99.9,29.98,NE,40,12.0,15.0,-999,-99.99,,,-99.99,,2013-04-14 22:13:00,
2013-04-14 18:23:00,66.0,-99.9,29.98,NE,39,12.0,14.0,-999,-99.99,,,-99.99,,2013-04-14 22:23:00,
2013-04-14 18:33:00,65.0,-99.9,29.96,NE,35,13.0,16.0,-999,-99.99,,,-99.99,,2013-04-14 22:33:00,
2013-04-14 18:44:00,66.0,-99.9,29.98,NE,42,12.0,16.0,-999,-99.99,,,-99.99,,2013-04-14 22:44:00,
2013-04-14 18:53:00,66.0,-99.9,29.96,NE,41,17.0,20.0,-999,-99.99,,,-99.99,,2013-04-14 22:53:00,
2013-04-14 19:02:00,66.0,-99.9,29.97,NE,36,12.0,17.0,-999,-99.99,,,-99.99,,2013-04-14 23:02:00,
2013-04-14 19:13:00,65.0,-99.9,29.98,NNE,24,10.0,12.0,-999,-99.99,,,-99.99,,2013-04-14 23:13:00,
2013-04-14 19:23:00,65.0,-99.9,29.98,NE,46,13.0,15.0,-999,-99.99,,,-99.99,,2013-04-14 23:23:00,
2013-04-14 19:33:00,65.0,-99.9,29.97,NE,42,15.0,18.0,-999,-99.99,,,-99.99,,2013-04-14 23:33:00,
2013-04-14 19:43:00,65.0,-99.9,29.99,NNE,21,4.0,10.0,-999,-99.99,,,-99.99,,2013-04-14 23:43:00,
2013-04-14 19:53:00,65.0,-99.9,29.96,NE,43,16.0,18.0,-999,-99.99,,,-99.99,,2013-04-14 23:53:00,
2013-04-14 20:02:00,65.0,-99.9,29.94,NE,53,15.0,23.0,-999,-99.99,,,-99.99,,2013-04-15 00:02:00,
2013-04-14 20:13:00,66.0,-99.9,29.95,ENE,69,19.0,22.0,-999,-99.99,,,-99.99,,2013-04-15 00:13:00,
2013-04-14 20:23:00,66.0,-99.9,29.95,ENE,71,19.0,24.0,-999,-99.99,,,-99.99,,2013-04-15 00:23:00,
2013-04-14 20:33:00,66.0,-99.9,29.96,ENE,60,19.0,22.0,-999,-99.99,,,-99.99,,2013-04-15 00:33:00,
2013-04-14 20:43:00,66.0,-99.9,29.95,ENE,60,19.0,25.0,-999,-99.99,,,-99.99,,2013-04-15 00:43:00,
2013-04-14 20:53:00,66.0,-99.9,29.95,NE,53,16.0,21.0,-999,-99.99,,,-99.99,,2013-04-15 00:53:00,
2013-04-14 21:03:00,65.0,-99.9,29.98,NNE,33,12.0,17.0,-999,-99.99,,,-99.99,,2013-04-15 01:03:00,
2013-04-14 21:13:00,65.0,-99.9,29.96,ENE,66,19.0,20.0,-999,-99.99,,,-99.99,,2013-04-15 01:13:00,
2013-04-14 21:23:00,65.0,-99.9,29.95,ENE,64,19.0,22.0,-999,-99.99,,,-99.99,,2013-04-15 01:23:00,
2013-04-14 21:33:00,65.0,-99.9,29.98,North,7,6.0,13.0,-999,-99.99,,,-99.99,,2013-04-15 01:33:00,
2013-04-14 21:43:00,66.0,-99.9,30.00,NE,36,10.0,13.0,-999,-99.99,,,-99.99,,2013-04-15 01:43:00,
2013-04-14 21:52:00,65.0,-99.9,30.01,SW,225,4.0,11.0,-999,-99.99,,,-99.99,,2013-04-15 01:52:00,
2013-04-14 22:03:00,65.0,-99.9,30.01,WNW,292,3.0,5.0,-999,-99.99,,,-99.99,,2013-04-15 02:03:00,
2013-04-14 22:13:00,66.0,-99.9,29.98,ESE,104,7.0,11.0,-999,-99.99,,,-99.99,,2013-04-15 02:13:00,
2013-04-14 22:23:00,67.0,-99.9,29.98,East,88,6.0,10.0,-999,-99.99,,,-99.99,,2013-04-15 02:23:00,
2013-04-14 22:32:00,67.0,-99.9,29.98,East,87,6.0,10.0,-999,-99.99,,,-99.99,,2013-04-15 02:32:00,
2013-04-14 22:42:00,66.0,-99.9,29.97,East,87,6.0,8.0,-999,-99.99,,,-99.99,,2013-04-15 02:42:00,
2013-04-14 22:53:00,67.0,-99.9,29.97,East,90,5.0,7.0,-999,-99.99,,,-99.99,,2013-04-15 02:53:00,
2013-04-14 23:03:00,67.0,-99.9,29.97,East,100,4.0,6.0,-999,-99.99,,,-99.99,,2013-04-15 03:03:00,
2013-04-14 23:12:00,67.0,-99.9,29.97,SSE,158,2.0,5.0,-999,-99.99,,,-99.99,,2013-04-15 03:12:00,
2013-04-14 23:22:00,67.0,-99.9,29.98,SW,235,2.0,4.0,-999,-99.99,,,-99.99,,2013-04-15 03:22:00,
2013-04-14 23:33:00,66.0,-99.9,29.99,SW,234,3.0,6.0,-999,-99.99,,,-99.99,,2013-04-15 03:33:00,
2013-04-14 23:43:00,66.0,-99.9,29.96,SE,128,2.0,2.0,-999,-99.99,,,-99.99,,2013-04-15 03:43:00,
2013-04-14 23:55:00,66.0,-99.9,29.96,SSE,164,2.0,4.0,-999,-99.99,,,-99.99,,2013-04-15 03:55:00,